Weather History for Camdenton, MO

Change the Weather History Date:

Thursday, March 27, 2014

  Actual Average (KAIZ) Record (KAIZ)
Temperature  
Mean Temperature 54 °F -  
Max Temperature 66 °F 59 °F 82 °F (2012)
Min Temperature 42 °F 37 °F 17 °F (2001)
Degree Days  
Heating Degree Days 11    
Growing Degree Days 4 (Base 50)    
Moisture  
Dew Point 43 °F    
Average Humidity 68    
Maximum Humidity 88    
Minimum Humidity 58    
Precipitation  
Precipitation 0.20 in - - ()
Sea Level Pressure  
Sea Level Pressure 29.66 in    
Wind  
Wind Speed 18 mph (South)    
Max Wind Speed 28 mph    
Max Gust Speed 36 mph    
Visibility 10 miles    
Events Rain , Thunderstorm    
Averages and records for this station are not official NWS values.
T = Trace of Precipitation, MM = Missing Value Source: NWS Daily Summary

Daily Weather History Graph

Daily Weather History Graph

Search for Another Location

Airport:

Trip Planner

Search our weather history database for the weather conditions in past years. The results will help you decide how hot, cold, wet, or windy it might be!

Date:

Astronomy

Mar. 27, 2014 Rise Set
Actual Time 7:03 AM CDT 7:29 PM CDT
Civil Twilight 6:37 AM CDT 7:55 PM CDT
Nautical Twilight 6:06 AM CDT 8:26 PM CDT
Astronomical Twilight 5:34 AM CDT 8:58 PM CDT
Moon 4:52 AM CDT (3/27) 4:20 PM CDT (3/27)
Length of Visible Light 13h 18m
Length of Day
12h 25m
Waning Crescent, 13% of the Moon is Illuminated
Mar 27
Waning Crescent
Mar 30
New
Apr 7
First Quarter
Apr 15
Full
Apr 22
Last Quarter

Hourly Weather History & Observations

Time (CDT) Temp. Windchill Dew Point Humidity Pressure Visibility Wind Dir Wind Speed Gust Speed Precip Events Conditions
12:15 AM 42.8 °F 34.8 °F 35.6 °F 76% 29.87 in 10.0 mi SE 17.3 mph 27.6 mph N/A   Overcast
12:35 AM 42.8 °F 34.3 °F 35.6 °F 76% 29.85 in 10.0 mi SE 19.6 mph 28.8 mph N/A   Overcast
12:55 AM 42.8 °F 34.5 °F 35.6 °F 76% 29.84 in 10.0 mi SSE 18.4 mph 25.3 mph N/A   Overcast
1:15 AM 44.6 °F 36.1 °F 33.8 °F 66% 29.83 in 10.0 mi SSE 21.9 mph 27.6 mph N/A   Overcast
1:35 AM 44.6 °F 36.4 °F 33.8 °F 66% 29.82 in 10.0 mi SSE 20.7 mph 28.8 mph N/A   Overcast
1:55 AM 46.4 °F 39.0 °F 33.8 °F 62% 29.81 in 10.0 mi SSE 19.6 mph 29.9 mph N/A   Overcast
2:15 AM 46.4 °F 39.0 °F 33.8 °F 62% 29.80 in 10.0 mi SSE 19.6 mph 27.6 mph N/A   Overcast
2:35 AM 46.4 °F 39.2 °F 33.8 °F 62% 29.79 in 10.0 mi SSE 18.4 mph 26.5 mph N/A   Overcast
2:55 AM 46.4 °F 39.8 °F 33.8 °F 62% 29.78 in 10.0 mi SSE 16.1 mph 27.6 mph N/A   Overcast
3:15 AM 46.4 °F 38.7 °F 33.8 °F 62% 29.77 in 10.0 mi SSE 20.7 mph 31.1 mph N/A   Overcast
3:35 AM 46.4 °F 38.3 °F 33.8 °F 62% 29.76 in 10.0 mi SSE 23.0 mph 28.8 mph N/A   Overcast
3:55 AM 46.4 °F 39.8 °F 33.8 °F 62% 29.76 in 10.0 mi SSE 16.1 mph 26.5 mph N/A   Overcast
4:15 AM 46.4 °F 39.5 °F 33.8 °F 62% 29.74 in 10.0 mi SE 17.3 mph 25.3 mph N/A   Overcast
4:35 AM 46.4 °F 39.2 °F 33.8 °F 62% 29.73 in 10.0 mi SE 18.4 mph 25.3 mph N/A   Overcast
4:55 AM 46.4 °F 39.8 °F 33.8 °F 62% 29.72 in 10.0 mi SSE 16.1 mph 23.0 mph N/A   Overcast
5:15 AM 46.4 °F 40.1 °F 33.8 °F 62% 29.72 in 10.0 mi SSE 15.0 mph 24.2 mph N/A   Overcast
5:35 AM 48.2 °F - 33.8 °F 58% 29.72 in 10.0 mi South 15.0 mph 23.0 mph N/A   Overcast
5:55 AM 48.2 °F - 33.8 °F 58% 29.70 in 10.0 mi SSE 16.1 mph 26.5 mph N/A   Overcast
6:15 AM 48.2 °F - 35.6 °F 62% 29.69 in 10.0 mi SSE 15.0 mph 24.2 mph N/A   Overcast
6:35 AM 50.0 °F - 35.6 °F 58% 29.69 in 10.0 mi South 15.0 mph 26.5 mph N/A   Overcast
6:55 AM 50.0 °F - 37.4 °F 62% 29.69 in 10.0 mi South 16.1 mph 25.3 mph N/A   Overcast
7:15 AM 50.0 °F - 37.4 °F 62% 29.70 in 10.0 mi South 19.6 mph 28.8 mph N/A   Overcast
7:35 AM 50.0 °F - 37.4 °F 62% 29.70 in 10.0 mi SSE 16.1 mph 26.5 mph N/A   Overcast
7:55 AM 50.0 °F - 37.4 °F 62% 29.70 in 10.0 mi SSE 16.1 mph 27.6 mph N/A   Overcast
8:15 AM 50.0 °F - 37.4 °F 62% 29.70 in 10.0 mi SSE 13.8 mph 23.0 mph N/A   Overcast
8:35 AM 50.0 °F - 39.2 °F 66% 29.69 in 10.0 mi SSE 18.4 mph 26.5 mph N/A   Overcast
8:55 AM 51.8 °F - 41.0 °F 67% 29.69 in 10.0 mi South 16.1 mph 24.2 mph N/A   Overcast
9:15 AM 51.8 °F - 41.0 °F 67% 29.69 in 10.0 mi SSE 18.4 mph 23.0 mph N/A   Overcast
9:35 AM 51.8 °F - 41.0 °F 67% 29.70 in 10.0 mi South 10.4 mph 23.0 mph N/A   Overcast
9:55 AM 51.8 °F - 42.8 °F 71% 29.70 in 10.0 mi SSE 13.8 mph 21.9 mph N/A   Overcast
10:15 AM 51.8 °F - 42.8 °F 71% 29.68 in 10.0 mi SSE 18.4 mph 24.2 mph N/A   Overcast
10:35 AM 53.6 °F - 44.6 °F 72% 29.68 in 10.0 mi SSE 16.1 mph 23.0 mph N/A   Overcast
10:55 AM 53.6 °F - 44.6 °F 72% 29.66 in 10.0 mi SSE 19.6 mph 26.5 mph N/A   Overcast
11:15 AM 53.6 °F - 44.6 °F 72% 29.66 in 10.0 mi SSE 17.3 mph 24.2 mph N/A   Overcast
11:35 AM 55.4 °F - 44.6 °F 67% 29.65 in 10.0 mi SSE 15.0 mph 24.2 mph N/A   Overcast
11:55 AM 55.4 °F - 46.4 °F 72% 29.63 in 10.0 mi SSE 17.3 mph 26.5 mph N/A   Overcast
12:15 PM 55.4 °F - 46.4 °F 72% 29.62 in 10.0 mi SSE 19.6 mph 27.6 mph N/A   Overcast
12:35 PM 55.4 °F - 46.4 °F 72% 29.61 in 10.0 mi South 20.7 mph 33.4 mph N/A   Overcast
12:55 PM 57.2 °F - 48.2 °F 72% 29.60 in 10.0 mi SSE 21.9 mph 32.2 mph N/A   Overcast
1:15 PM 57.2 °F - 48.2 °F 72% 29.59 in 10.0 mi SSE 18.4 mph 32.2 mph N/A   Overcast
1:35 PM 57.2 °F - 48.2 °F 72% 29.57 in 10.0 mi SSE 21.9 mph 31.1 mph N/A   Overcast
1:55 PM 57.2 °F - 48.2 °F 72% 29.57 in 10.0 mi SSE 17.3 mph 25.3 mph N/A   Overcast
2:15 PM 59.0 °F - 50.0 °F 72% 29.57 in 10.0 mi SSE 19.6 mph 28.8 mph N/A   Overcast
2:35 PM 59.0 °F - 50.0 °F 72% 29.57 in 10.0 mi South 17.3 mph 27.6 mph N/A   Overcast
2:55 PM 59.0 °F - 50.0 °F 72% 29.55 in 10.0 mi South 18.4 mph 25.3 mph N/A   Overcast
3:15 PM 62.6 °F - 50.0 °F 63% 29.52 in 10.0 mi South 20.7 mph 28.8 mph N/A   Overcast
3:35 PM 62.6 °F - 51.8 °F 68% 29.55 in 10.0 mi South 18.4 mph 26.5 mph N/A   Overcast
3:55 PM 64.4 °F - 51.8 °F 64% 29.52 in 10.0 mi South 24.2 mph 32.2 mph N/A   Mostly Cloudy
4:15 PM 64.4 °F - 51.8 °F 64% 29.52 in 10.0 mi South 24.2 mph 32.2 mph N/A   Scattered Clouds
4:35 PM 66.2 °F - 51.8 °F 60% 29.52 in 10.0 mi SSW 27.6 mph 35.7 mph N/A   Mostly Cloudy
4:55 PM 64.4 °F - 51.8 °F 64% 29.51 in 10.0 mi South 19.6 mph 32.2 mph N/A   Scattered Clouds
5:15 PM 64.4 °F - 51.8 °F 64% 29.51 in 10.0 mi South 25.3 mph 33.4 mph N/A   Clear
5:35 PM 64.4 °F - 51.8 °F 64% 29.51 in 10.0 mi South 19.6 mph 29.9 mph N/A   Clear
5:55 PM 64.4 °F - 51.8 °F 64% 29.51 in 10.0 mi South 19.6 mph 28.8 mph N/A   Scattered Clouds
6:15 PM 64.4 °F - 51.8 °F 64% 29.52 in 10.0 mi South 20.7 mph 29.9 mph N/A   Scattered Clouds
6:35 PM 62.6 °F - 51.8 °F 68% 29.52 in 10.0 mi South 15.0 mph 24.2 mph N/A   Scattered Clouds
6:55 PM 62.6 °F - 51.8 °F 68% 29.51 in 10.0 mi SSE 16.1 mph 27.6 mph N/A   Clear
7:15 PM 60.8 °F - 51.8 °F 72% 29.51 in 10.0 mi SSE 18.4 mph 25.3 mph N/A   Clear
7:35 PM 60.8 °F - 51.8 °F 72% 29.53 in 10.0 mi South 16.1 mph - N/A   Clear
7:55 PM 62.6 °F - 51.8 °F 68% 29.54 in 10.0 mi South 9.2 mph 19.6 mph N/A Thunderstorm Scattered Clouds
8:15 PM 59.0 °F - 51.8 °F 77% 29.59 in 5.0 mi West 18.4 mph 24.2 mph 0.07 in Rain , Thunderstorm Heavy Thunderstorms and Rain
8:35 PM 57.2 °F - 53.6 °F 88% 29.61 in 10.0 mi SW 8.1 mph - 0.20 in Rain , Thunderstorm Light Thunderstorms and Rain
8:55 PM 57.2 °F - 53.6 °F 88% 29.63 in 10.0 mi West 6.9 mph - 0.20 in Thunderstorm Thunderstorm
9:15 PM 57.2 °F - 53.6 °F 88% 29.66 in 10.0 mi West 8.1 mph - N/A   Overcast
9:35 PM 57.2 °F - 48.2 °F 72% 29.69 in 10.0 mi West 17.3 mph 24.2 mph N/A   Overcast
9:55 PM 55.4 °F - 44.6 °F 67% 29.71 in 10.0 mi West 12.7 mph 18.4 mph N/A   Scattered Clouds
10:15 PM 53.6 °F - 42.8 °F 67% 29.73 in 10.0 mi West 10.4 mph 19.6 mph N/A   Clear
10:35 PM 51.8 °F - 41.0 °F 67% 29.73 in 10.0 mi WNW 13.8 mph 20.7 mph N/A   Clear
10:55 PM 50.0 °F - 41.0 °F 71% 29.75 in 10.0 mi WNW 11.5 mph 17.3 mph N/A   Clear
11:15 PM 50.0 °F - 39.2 °F 66% 29.76 in 10.0 mi West 12.7 mph 20.7 mph N/A   Clear
11:35 PM 48.2 °F - 37.4 °F 66% 29.78 in 10.0 mi West 12.7 mph 19.6 mph N/A   Clear
11:55 PM 46.4 °F 40.7 °F 37.4 °F 71% 29.80 in 10.0 mi WNW 12.7 mph 19.6 mph N/A   Clear